Shavertown, Pennsylvania
Current Conditions -  °F | °C
As of 5:54 AM on Monday 20 Oct 2014 (Local Time) from KAVP Reporting Station
Clear Clear  
Wind Chill: 30°   Ceiling: Unl
Heat Index: 34°   Visibility: 10mi
Dew Point: 29°   Wind: 5mph
Humidity: 82%   Direction: 110°ESE
Pressure: 30.05"   Gusts: NA
Location:  41.31°N, 75.94°W
Report Text: KAVP 200954Z AUTO 11004KT 10SM CLR 01/M02 A3005 RMK AO2 SLP182 T00111017
Loading
Personal Weather Stations






























Interactive Weather Map
Tropical Storm Tracking
New forecast layout! Learn more

10-Day Weather Forecast

Advertisements
Track Severe Weather on mobile